Location: *
(44.1392°N, 4.8079°E)
Time: 07:35:52
(UTC+00:00)

CZ-3B R/B - Pass Details

Date: 21 June 2021
Orbit: 338 x 17331 km, 54.9° (Epoch: 31 July)

Event Time Altitude Azimuth Distance (km) Brightness Sun altitude
Rises 02:49:28 0° 306° (NW) 4,370 6.3 -10.0°
Reaches altitude 10° 02:53:33 10° 310° (NW) 2,332 5.0 -9.5°
Maximum altitude 02:57:41 54° 30° (NNE) 519 2.1 -9.0°
Drops below altitude 10° 02:59:59 10° 111° (ESE) 1,295 4.1 -8.7°
Sets 03:01:35 0° 117° (ESE) 2,133 5.1 -8.5°
